Temperature
0 1 1 1 1 0 1 1 1 2 1 2 2 1 1 1 2 2 2 2 2 2 2 2 2 2 2 2 2 2 2 2 2 2 2 2 2 2 2 2 1 1 1 1
-0 1 1 1 1 0 0 1 0 1 1 1 1 1 1 1 1 1 2 2 2 2 2 2 2 2 2 2 2 2 2 2 1 1 1 1 1 1 1 1 1 1 1 1
-0 -0 1 1 1 0 0 -0 0 1 2 1 0 0 1 1 1 1 1 1 1 1 2 2 2 2 1 1 1 1 1 1 1 1 1 1 1 1 1 0 0 0 0 0
-1 -0 1 2 0 0 0 -0 -1 -0 0 0 0 1 1 2 2 1 1 1 1 1 1 1 1 1 1 1 1 1 1 0 0 0 0 0 0 0 -0 -0 -0 -0 -0 -0
-1 -1 0 1 0 -1 -0 1 -0 -1 -1 -0 0 0 1 2 2 2 1 1 1 1 1 1 1 1 1 1 1 1 0 0 0 -0 -0 -0 -0 -0 -0 -1 -1 -1 -1 -1
-2 -0 1 2 0 -0 0 1 0 -0 -1 -1 -1 -1 0 2 1 1 1 1 1 0 0 1 0 0 0 0 0 0 0 0 -0 -0 -0 -1 -1 -1 -1 -1 -1 -1 -1 -1
-2 -1 -0 0 -1 0 1 1 1 1 0 -0 -1 0 1 1 1 1 1 0 0 0 0 0 0 -0 -0 -0 0 0 -0 -0 -0 -1 -1 -1 -1 -1 -1 -2 -2 -1 -1 -1
-3 -2 -0 -1 -1 -0 1 1 1 1 1 1 1 1 1 0 0 0 0 0 -0 -0 -0 -0 -0 -0 -0 -0 -0 -1 -0 -1 -1 -1 -1 -1 -1 -2 -2 -2 -2 -2 -2 -2
-2 -0 -0 -0 0 1 1 1 1 1 1 1 0 0 -0 -0 -0 -0 -0 -0 -1 -1 -1 -1 -1 -1 -1 -1 -1 -1 -1 -1 -1 -1 -1 -2 -2 -2 -2 -2 -2 -2 -2 -2
-3 -2 -1 -0 1 1 1 1 1 1 1 0 0 -0 -0 -1 -1 -1 -1 -1 -1 -1 -1 -1 -1 -1 -1 -1 -2 -2 -2 -2 -2 -2 -2 -2 -2 -2 -2 -2 -3 -3 -3 -3
-4 -3 -2 0 1 2 1 1 1 1 0 0 -0 -1 -1 -1 -1 -1 -1 -1 -1 -2 -2 -2 -2 -2 -2 -2 -2 -2 -2 -2 -2 -2 -3 -3 -3 -3 -3 -3 -3 -3 -3 -3
-2 -1 -2 0 1 1 1 0 0 0 -0 -0 -0 -1 -1 -1 -1 -1 -1 -2 -2 -2 -2 -2 -2 -2 -2 -2 -2 -2 -2 -2 -3 -3 -3 -3 -3 -3 -3 -3 -3 -3 -3 -3
-0 0 -0 0 1 0 0 -0 -0 -0 -0 -1 -1 -1 -1 -1 -2 -2 -2 -2 -2 -2 -2 -2 -2 -2 -2 -2 -2 -3 -3 -3 -3 -3 -3 -4 -4 -4 -3 -3 -3 -3 -3 -4
-0 -0 -1 -0 -0 -0 -0 -1 -1 -1 -1 -1 -1 -1 -2 -2 -2 -2 -2 -2 -2 -2 -3 -3 -3 -3 -3 -3 -3 -3 -3 -3 -3 -4 -4 -4 -4 -4 -4 -4 -4 -4 -4 -4
-1 -1 -1 -0 -1 -1 -1 -1 -1 -1 -1 -1 -1 -2 -2 -2 -2 -2 -2 -3 -3 -3 -3 -3 -3 -3 -3 -3 -3 -3 -3 -3 -4 -4 -4 -4 -4 -4 -5 -5 -5 -5 -4 -4
-1 -1 -1 -1 -1 -1 -1 -1 -2 -2 -2 -2 -2 -2 -2 -2 -2 -3 -3 -3 -3 -3 -3 -3 -3 -3 -3 -4 -4 -4 -4 -4 -4 -4 -4 -5 -5 -5 -5 -5 -5 -5 -5 -5
-2 -2 -2 -2 -1 -1 -1 -2 -2 -2 -2 -2 -2 -2 -2 -2 -3 -3 -3 -3 -3 -3 -3 -3 -4 -4 -4 -4 -4 -4 -4 -4 -4 -4 -5 -5 -5 -5 -5 -5 -5 -5 -5 -5
-1 -1 -1 -2 -2 -2 -2 -2 -2 -2 -2 -2 -3 -3 -3 -3 -3 -3 -3 -3 -3 -3 -4 -4 -4 -4 -4 -4 -4 -4 -4 -4 -5 -5 -5 -5 -5 -5 -6 -6 -6 -6 -5 -5
-1 -1 -1 -1 -2 -2 -2 -2 -2 -2 -2 -3 -3 -3 -3 -3 -3 -3 -3 -3 -4 -4 -4 -4 -4 -4 -4 -4 -4 -5 -5 -5 -5 -5 -5 -5 -5 -6 -6 -6 -6 -6 -6 -6
-1 -1 -1 -1 -2 -2 -2 -2 -2 -2 -3 -3 -3 -3 -3 -3 -3 -3 -3 -4 -4 -4 -4 -4 -4 -4 -5 -5 -5 -5 -5 -5 -5 -6 -6 -6 -6 -6 -6 -6 -6 -6 -6 -6
-2 -2 -2 -2 -2 -2 -2 -2 -3 -3 -3 -3 -3 -3 -3 -3 -3 -4 -4 -4 -4 -4 -4 -5 -5 -5 -5 -5 -5 -5 -6 -6 -6 -6 -6 -6 -6 -6 -6 -7 -7 -7 -7 -7
-2 -2 -2 -2 -2 -3 -3 -3 -3 -3 -3 -3 -3 -4 -4 -4 -4 -4 -4 -4 -4 -5 -5 -5 -5 -5 -5 -5 -5 -6 -6 -6 -6 -6 -6 -7 -7 -7 -7 -7 -7 -7 -7 -7
-2 -2 -3 -3 -3 -3 -3 -3 -4 -4 -4 -4 -4 -4 -4 -4 -4 -5 -5 -5 -5 -5 -5 -5 -5 -6 -6 -6 -6 -6 -6 -6 -7 -7 -7 -7 -7 -7 -7 -7 -7 -7 -7 -7
-3 -3 -3 -3 -3 -3 -3 -4 -4 -4 -4 -4 -4 -4 -4 -5 -5 -5 -5 -5 -5 -6 -6 -6 -6 -6 -6 -6 -6 -6 -6 -7 -7 -7 -7 -7 -7 -7 -7 -7 -7 -7 -7 -7
-3 -3 -3 -3 -4 -4 -4 -4 -4 -4 -4 -5 -5 -5 -5 -5 -5 -5 -6 -6 -6 -6 -6 -6 -6 -6 -6 -6 -6 -6 -7 -7 -7 -7 -7 -7 -7 -7 -7 -8 -8 -8 -8 -8
-3 -3 -4 -4 -4 -4 -4 -5 -5 -5 -5 -5 -5 -5 -6 -6 -6 -6 -6 -6 -6 -6 -6 -6 -7 -7 -7 -7 -7 -7 -7 -7 -7 -7 -7 -7 -8 -8 -8 -8 -8 -8 -8 -8
-4 -4 -4 -4 -4 -5 -5 -5 -5 -5 -5 -5 -6 -6 -6 -6 -6 -6 -6 -6 -7 -7 -7 -7 -7 -7 -7 -7 -7 -7 -7 -7 -7 -7 -7 -8 -8 -8 -8 -8 -8 -8 -8 -8
Wind_Speed
6 6 4 5 7 7 8 7 8 8 8 11 9 7 6 6 4 4 4 4 3 3 3 3 3 3 3 3 3 3 3 3 4 4 4 3 3 3 3 3 3 3 4 4
4 4 4 6 8 8 9 7 9 9 11 9 7 4 5 5 4 5 6 5 4 4 4 4 4 4 4 4 3 3 3 4 4 3 4 4 4 3 3 3 3 3 4 4
4 5 4 7 8 9 6 7 8 10 10 5 5 6 6 5 5 6 6 6 5 5 5 5 5 4 5 5 3 3 4 4 4 4 4 4 4 3 3 3 3 4 4 4
2 2 5 6 2 6 6 7 8 8 7 6 6 7 6 6 5 6 6 6 5 5 5 5 5 4 4 4 4 4 5 5 5 4 4 4 4 4 4 4 4 4 5 5
1 3 7 6 3 3 5 6 6 8 9 7 4 4 5 5 4 5 6 6 5 5 5 5 5 4 4 4 4 4 5 6 5 5 5 5 5 5 4 4 4 4 5 5
2 3 5 5 2 1 2 5 4 5 7 5 0 3 6 4 3 4 4 4 4 4 4 4 4 3 3 5 4 5 6 6 5 5 5 6 5 5 4 4 4 5 5 5
4 5 7 5 2 2 2 5 3 4 5 4 5 6 5 4 4 4 4 4 3 3 4 5 4 3 4 5 6 6 5 5 5 5 5 5 4 4 4 4 4 5 5 5
4 4 7 2 3 5 6 4 3 4 4 4 5 5 5 4 4 4 4 4 3 3 5 5 4 3 4 6 6 4 4 4 4 4 4 3 3 4 4 4 4 5 5 5
7 8 5 4 6 6 4 5 6 5 5 4 5 5 5 4 4 4 4 4 3 3 5 5 4 3 4 6 5 4 4 4 4 4 3 3 3 3 3 4 4 5 5 5
6 9 8 8 7 7 7 7 7 6 6 5 6 6 5 5 4 4 4 4 3 3 4 5 5 4 4 5 4 3 4 4 3 3 3 3 3 3 4 4 4 5 5 5
8 9 8 8 7 7 7 6 6 5 5 5 5 5 5 5 5 4 4 3 3 3 4 6 6 5 4 4 3 3 3 3 3 3 3 2 3 3 4 5 5 5 5 4
9 8 6 8 6 5 6 7 6 5 4 4 4 5 5 5 5 4 4 3 4 4 5 5 5 6 5 4 3 3 3 3 2 2 2 2 2 3 5 5 7 7 7 6
9 7 7 9 7 6 6 6 6 5 5 5 4 4 4 4 4 3 4 4 4 5 5 5 5 5 5 4 3 3 3 3 3 2 2 2 2 3 4 5 5 6 6 7
8 6 7 7 7 6 5 5 4 4 4 4 4 3 3 3 4 4 5 5 4 4 5 5 5 5 5 4 3 3 3 3 3 2 3 3 3 3 3 3 4 4 5 6
8 7 8 6 6 5 4 3 3 4 3 3 3 3 3 4 5 5 5 4 4 4 4 4 5 6 5 3 3 3 3 3 2 2 2 2 2 2 3 3 3 4 4 4
5 5 5 6 7 7 5 5 5 6 5 4 4 4 5 5 5 5 4 3 3 5 5 5 5 5 4 3 3 3 3 4 3 2 2 2 2 2 2 3 3 3 4 4
4 6 6 6 7 7 6 7 6 6 5 5 5 5 3 3 3 4 4 4 4 5 5 5 5 4 3 3 2 2 2 3 4 2 2 2 2 2 2 3 3 4 4 4
9 9 8 7 7 7 7 6 5 5 6 5 4 3 3 3 5 5 5 4 4 5 5 5 4 3 3 2 2 2 2 2 2 2 2 2 2 2 2 3 3 4 4 5
6 7 7 7 7 6 6 6 6 5 5 4 4 5 5 5 5 5 4 4 4 5 5 4 5 3 3 3 2 1 2 2 2 2 2 3 3 2 2 3 3 3 4 4
4 4 4 4 4 4 5 5 5 5 4 4 4 4 5 5 4 4 4 4 5 5 4 4 3 3 3 3 3 1 2 2 2 2 2 2 3 3 3 3 3 3 3 4
4 4 4 4 4 4 4 4 4 5 4 4 5 5 5 5 3 3 3 5 5 4 4 5 3 3 3 3 2 1 2 2 2 2 2 3 3 3 3 3 3 3 3 4
4 4 4 3 3 4 3 3 3 3 3 3 4 4 4 4 4 3 4 5 5 5 3 3 3 4 4 3 1 1 2 2 2 2 2 3 3 3 3 3 3 3 3 3
3 3 4 4 3 3 3 2 3 3 3 4 4 4 4 4 3 3 5 3 3 5 3 3 4 6 5 2 1 1 2 2 2 2 2 3 3 3 3 4 3 3 3 3
3 3 3 2 1 2 3 3 2 2 3 3 3 3 3 3 3 3 3 5 5 5 3 4 6 6 4 1 1 1 2 2 2 2 2 2 3 3 3 3 3 3 3 3
3 2 2 2 2 3 3 3 2 2 2 2 3 2 2 2 3 3 2 3 5 4 3 4 6 5 2 1 1 2 2 2 3 2 2 2 3 3 3 3 3 3 3 3
2 3 3 3 3 3 2 2 2 2 2 2 3 2 2 2 2 2 2 2 3 4 3 2 3 2 1 1 2 2 2 3 3 3 3 3 3 3 3 3 3 3 3 3
2 2 2 2 2 2 2 2 2 3 2 2 3 2 2 2 1 2 2 2 2 2 2 2 1 1 1 2 2 2 2 2 2 3 3 3 3 3 3 3 3 3 3 2
Wind_Direction
264 272 250 242 240 221 214 214 222 247 250 268 277 280 284 290 298 304 305 303 297 292 288 288 290 286 276 274 272 268 262 262 262 264 265 262 261 262 260 252 260 264 270 271
285 275 266 267 248 228 231 234 241 261 268 264 273 276 282 286 284 287 294 297 295 291 290 287 280 279 278 274 270 262 258 262 264 258 259 260 259 259 258 259 262 265 266 273
273 299 319 274 239 214 215 214 208 233 249 269 283 279 274 273 269 273 282 287 285 284 281 280 277 270 268 267 270 262 259 261 261 254 254 259 261 254 255 255 258 261 264 268
271 355 250 250 218 194 213 239 222 241 257 257 260 276 274 258 254 271 280 282 285 285 287 288 285 281 275 273 264 260 260 257 254 248 250 257 251 245 249 255 257 259 261 262
186 252 275 290 261 190 203 265 228 232 257 271 283 314 292 258 244 258 270 272 275 278 280 282 281 277 275 271 265 262 259 253 250 245 248 254 251 248 249 252 258 259 262 260
177 233 251 267 292 234 139 284 260 219 245 253 279 304 280 277 283 285 289 287 289 298 297 286 282 284 276 271 264 260 262 259 253 247 244 247 247 248 252 255 258 260 265 261
207 239 264 269 289 115 162 265 282 231 239 223 221 238 268 298 299 287 291 290 289 296 291 282 284 283 275 274 265 268 274 273 262 252 247 243 245 246 246 255 261 262 268 269
181 221 258 243 134 189 232 279 281 262 248 244 253 272 281 284 286 289 296 297 298 299 297 296 288 271 276 273 276 286 285 276 263 259 255 246 240 246 244 245 253 260 267 275
206 227 262 216 227 249 255 269 268 256 255 252 259 268 273 274 279 284 285 287 293 291 300 307 299 269 270 284 294 295 286 277 268 265 263 251 242 250 252 246 252 263 267 274
256 266 265 261 263 269 262 256 260 252 253 247 250 259 266 271 275 284 286 288 297 305 305 306 306 295 274 287 292 284 278 278 276 264 269 272 261 252 251 247 252 262 269 276
259 275 292 274 254 263 269 265 266 265 253 242 245 261 262 268 273 276 283 291 292 292 292 297 304 303 297 288 283 277 276 274 277 272 266 270 275 268 265 252 250 260 260 260
243 244 240 269 274 272 268 268 260 257 266 263 240 250 263 266 268 273 279 283 289 290 291 297 305 305 305 299 278 268 278 277 276 278 278 278 283 301 293 288 284 280 278 277
246 259 255 270 281 274 266 268 264 251 249 264 264 248 255 269 273 277 281 280 279 282 287 295 301 301 302 298 285 268 269 277 277 281 278 280 284 285 300 311 308 303 297 294
247 261 273 267 269 273 268 269 272 272 262 251 260 265 262 272 278 276 276 278 282 285 290 294 296 299 303 297 289 280 279 280 283 272 274 273 276 281 287 300 314 316 316 310
250 237 247 270 279 281 276 268 269 270 266 267 262 261 260 262 269 274 280 289 292 290 292 297 298 302 312 303 295 291 290 287 284 282 281 280 283 287 293 297 302 307 318 324
263 261 253 260 265 269 265 254 252 258 260 263 268 269 266 261 267 278 282 280 280 283 288 292 289 294 302 297 296 295 287 296 305 293 287 286 287 288 294 300 304 304 306 310
241 258 255 260 260 260 253 247 243 249 253 255 260 268 270 275 282 284 285 280 274 274 277 277 283 294 292 281 274 277 282 291 302 299 284 279 279 280 286 291 296 300 299 306
233 241 241 241 246 253 258 255 249 248 250 253 260 261 253 255 265 274 282 292 298 295 288 279 284 289 285 282 270 269 270 277 282 278 280 281 285 284 283 287 293 299 306 310
245 246 248 247 243 239 245 250 249 246 249 247 247 250 250 251 257 268 275 279 284 289 293 292 305 310 297 291 295 269 278 285 290 291 288 300 308 304 298 295 294 297 302 307
259 258 256 259 250 237 244 249 245 245 244 233 241 250 256 259 257 260 263 265 261 261 275 285 289 285 282 284 298 284 283 282 285 293 297 300 301 303 299 295 295 298 301 300
262 263 263 261 263 254 245 242 238 244 246 230 230 240 252 265 263 256 266 281 281 269 275 284 284 274 270 274 275 263 265 272 277 280 283 286 291 294 297 298 298 299 298 299
260 258 260 260 258 266 263 243 234 241 246 241 238 240 251 266 268 263 253 257 277 289 291 275 272 278 284 281 244 243 256 260 264 268 270 273 276 282 288 292 293 296 295 294
259 259 261 260 256 264 282 262 240 235 240 243 242 241 244 251 248 256 281 273 273 285 289 273 285 293 294 283 245 248 258 263 265 266 266 268 270 272 277 282 286 288 289 291
260 262 262 269 257 261 271 271 259 247 244 251 249 243 240 259 271 252 256 286 294 291 288 294 302 303 304 312 263 261 264 267 270 273 273 274 273 274 276 278 281 283 285 287
254 255 253 244 247 255 258 271 285 279 270 275 277 270 248 234 249 270 273 280 291 297 297 301 305 307 318 295 266 265 267 270 272 274 273 277 278 280 281 282 282 284 286 284
243 248 248 243 244 252 251 245 261 273 273 288 299 290 276 268 264 274 279 281 284 295 298 295 301 301 296 278 272 272 271 280 288 287 280 277 280 281 281 283 284 281 280 281
255 258 265 275 267 245 233 232 247 258 251 256 282 282 274 279 282 284 284 287 291 291 290 288 283 273 272 272 277 280 278 277 277 276 278 278 279 280 284 285 286 285 281 279
Height
1494 1492 1491 1489 1488 1489 1490 1488 1488 1479 1478 1469 1467 1467 1465 1463 1462 1461 1459 1458 1458 1457 1456 1456 1455 1454 1454 1454 1453 1453 1452 1452 1452 1452 1452 1452 1452 1452 1452 1452 1452 1451 1452 1452
1494 1490 1488 1485 1482 1484 1484 1484 1482 1479 1474 1465 1465 1464 1463 1461 1460 1458 1457 1456 1455 1454 1454 1452 1451 1451 1450 1450 1449 1449 1449 1448 1448 1447 1447 1447 1447 1447 1447 1447 1447 1447 1447 1447
1494 1491 1486 1482 1475 1477 1477 1476 1476 1473 1467 1463 1463 1461 1460 1459 1457 1456 1455 1454 1453 1452 1450 1449 1448 1447 1446 1446 1446 1445 1445 1444 1443 1443 1442 1443 1443 1443 1443 1442 1443 1443 1442 1442
1496 1493 1486 1471 1469 1469 1471 1469 1469 1466 1462 1461 1460 1458 1457 1456 1455 1453 1452 1451 1450 1449 1447 1446 1445 1444 1443 1442 1441 1441 1440 1439 1439 1438 1438 1438 1438 1438 1438 1438 1438 1438 1438 1438
1497 1493 1482 1471 1468 1469 1469 1465 1462 1462 1460 1458 1458 1457 1454 1453 1452 1451 1450 1448 1447 1446 1444 1443 1442 1440 1439 1438 1437 1436 1435 1434 1434 1434 1434 1434 1434 1434 1434 1434 1433 1434 1433 1433
1495 1490 1479 1468 1466 1464 1467 1465 1459 1458 1457 1457 1457 1459 1453 1450 1449 1448 1447 1445 1444 1442 1441 1440 1438 1437 1435 1433 1432 1431 1430 1430 1430 1430 1430 1429 1429 1429 1429 1429 1429 1429 1429 1428
1493 1490 1477 1467 1465 1465 1470 1464 1457 1456 1455 1455 1454 1453 1450 1448 1447 1445 1444 1443 1441 1439 1438 1436 1435 1433 1431 1430 1428 1427 1427 1426 1426 1426 1425 1425 1425 1425 1425 1425 1425 1424 1424 1423
1492 1489 1476 1464 1464 1465 1461 1457 1455 1454 1453 1452 1451 1449 1447 1445 1444 1442 1441 1439 1438 1436 1435 1433 1432 1430 1428 1426 1425 1424 1423 1422 1422 1422 1422 1422 1421 1421 1421 1420 1420 1419 1419 1418
1478 1471 1462 1460 1459 1458 1457 1455 1453 1452 1450 1450 1448 1446 1444 1442 1441 1440 1438 1436 1435 1433 1431 1430 1428 1427 1425 1424 1422 1421 1420 1419 1418 1418 1418 1418 1417 1416 1416 1416 1415 1414 1414 1413
1472 1463 1458 1457 1456 1455 1453 1452 1450 1449 1448 1446 1444 1443 1441 1440 1438 1437 1435 1433 1432 1430 1428 1427 1425 1424 1422 1421 1419 1418 1417 1416 1415 1415 1414 1414 1413 1413 1412 1411 1410 1410 1409 1408
1467 1459 1455 1452 1451 1450 1449 1448 1446 1444 1444 1442 1441 1439 1438 1436 1435 1434 1432 1431 1429 1427 1425 1424 1422 1421 1420 1418 1417 1415 1414 1413 1412 1412 1411 1410 1410 1409 1408 1407 1407 1406 1405 1404
1458 1453 1453 1449 1448 1447 1446 1444 1442 1441 1440 1439 1438 1437 1435 1434 1432 1431 1429 1428 1426 1425 1423 1422 1420 1418 1417 1416 1414 1413 1412 1411 1409 1409 1408 1407 1406 1405 1405 1404 1403 1402 1401 1401
1449 1447 1447 1445 1444 1443 1442 1440 1439 1438 1437 1436 1435 1434 1432 1431 1430 1428 1427 1425 1424 1422 1421 1419 1418 1416 1414 1413 1412 1411 1409 1408 1407 1406 1405 1404 1403 1402 1400 1400 1399 1398 1397 1397
1445 1444 1442 1440 1440 1439 1438 1436 1435 1434 1433 1433 1432 1431 1430 1428 1427 1426 1425 1423 1422 1420 1419 1417 1415 1414 1412 1411 1410 1408 1407 1406 1405 1404 1403 1402 1400 1399 1398 1396 1395 1394 1394 1393
1439 1439 1438 1436 1435 1434 1434 1432 1431 1430 1430 1429 1429 1428 1427 1426 1424 1423 1422 1421 1419 1418 1416 1415 1413 1412 1410 1409 1407 1406 1405 1404 1402 1402 1401 1399 1398 1397 1396 1394 1393 1392 1391 1390
1434 1434 1433 1432 1431 1430 1429 1429 1428 1427 1426 1426 1425 1425 1424 1423 1422 1421 1419 1418 1417 1415 1414 1412 1411 1410 1408 1407 1405 1404 1403 1402 1401 1400 1398 1397 1396 1395 1393 1392 1391 1390 1389 1388
1430 1428 1428 1427 1426 1426 1425 1425 1424 1423 1423 1423 1422 1422 1421 1420 1419 1418 1417 1416 1414 1413 1411 1410 1409 1407 1406 1404 1403 1402 1400 1399 1399 1398 1396 1395 1394 1393 1392 1391 1389 1388 1387 1387
1425 1425 1424 1423 1422 1421 1421 1421 1420 1420 1420 1419 1419 1418 1417 1417 1416 1415 1414 1412 1411 1410 1409 1408 1406 1405 1403 1402 1401 1399 1398 1397 1396 1395 1394 1393 1392 1391 1390 1389 1388 1387 1385 1385
1421 1420 1420 1419 1418 1418 1417 1417 1416 1416 1416 1416 1415 1415 1414 1414 1413 1412 1411 1409 1408 1407 1406 1405 1403 1402 1401 1400 1398 1397 1396 1395 1394 1393 1392 1391 1390 1389 1388 1387 1386 1385 1384 1383
1417 1417 1416 1415 1415 1414 1414 1413 1413 1412 1412 1412 1411 1411 1410 1410 1409 1408 1407 1406 1405 1404 1403 1402 1400 1399 1398 1397 1396 1395 1394 1393 1392 1390 1389 1388 1387 1386 1385 1384 1383 1383 1382 1381
1414 1413 1412 1412 1411 1411 1411 1410 1409 1408 1408 1408 1407 1407 1407 1406 1406 1405 1403 1402 1402 1401 1400 1399 1397 1396 1396 1395 1394 1393 1392 1391 1389 1388 1387 1386 1385 1384 1383 1382 1381 1381 1380 1379
1410 1409 1409 1408 1408 1407 1407 1407 1406 1405 1405 1404 1404 1404 1403 1403 1402 1401 1400 1400 1398 1397 1396 1395 1394 1394 1393 1392 1391 1390 1389 1388 1387 1386 1385 1385 1383 1382 1381 1380 1379 1378 1378 1377
1407 1407 1406 1406 1405 1404 1404 1403 1403 1402 1401 1401 1401 1400 1400 1399 1399 1398 1397 1396 1395 1394 1393 1392 1392 1391 1390 1389 1388 1387 1387 1386 1385 1384 1383 1382 1382 1381 1379 1378 1377 1376 1375 1374
1404 1404 1403 1403 1402 1401 1401 1400 1400 1399 1399 1398 1398 1397 1397 1396 1395 1395 1394 1393 1392 1391 1390 1389 1389 1388 1387 1386 1385 1385 1384 1383 1383 1382 1381 1380 1379 1378 1377 1376 1375 1374 1374 1373
1402 1401 1400 1400 1399 1398 1398 1398 1397 1396 1396 1395 1395 1394 1394 1393 1393 1392 1391 1390 1389 1388 1387 1386 1386 1385 1384 1383 1383 1382 1381 1381 1380 1379 1379 1378 1377 1376 1375 1374 1373 1372 1371 1371
1399 1398 1397 1397 1397 1396 1395 1395 1394 1393 1393 1392 1392 1391 1391 1390 1389 1389 1388 1387 1386 1385 1384 1384 1383 1382 1382 1381 1380 1380 1379 1378 1378 1377 1376 1376 1375 1374 1373 1372 1371 1370 1370 1369
1396 1395 1394 1394 1393 1393 1392 1392 1391 1391 1391 1390 1389 1389 1388 1387 1387 1386 1385 1384 1383 1383 1382 1381 1381 1380 1379 1379 1378 1378 1377 1376 1375 1375 1374 1373 1373 1372 1371 1370 1369 1369 1368 1367